Regional Weather Roundup
Issued by NWS

Home | Current Version | Previous Version | Text Only | Print | Product List | Glossary Off
Versions: 1 2 3 4 5 6 7 8 9 10 11 12 13 14 15 16 17 18 19 20 21 22 23 24 25 26 27 28 29 30 31 32 33 34 35 36 37 38 39 40 41 42 43 44 45 46 47 48 49 50

000
ASUS43 KFSD 291110
RWRSD

WEATHER ROUNDUP FOR SOUTH DAKOTA
NATIONAL WEATHER SERVICE SIOUX FALLS SD
500 AM CST MON DEC 29 2014

NOTE: "FAIR" INDICATES FEW OR NO CLOUDS BELOW 12,000 FEET WITH NO
SIGNIFICANT WEATHER AND/OR OBSTRUCTIONS TO VISIBILITY.


SDZ001>005-009-010-012>017-291200-
NORTHWEST AND NORTH CENTRAL SOUTH DAKOTA

CITY           SKY/WX    TMP DP  RH WIND       PRES   REMARKS
BUFFALO          N/A      4   0  83 NE16      30.30R WCI -15
FAITH            N/A      2  -3  80 NE17      30.38R WCI -18
MOBRIDGE       LGT SNOW   2  -5  72 NE13      30.46R WCI -15
$$

SDZ012>016-024>037-041>051-057-063-072>074-291200-
SOUTHWEST AND SOUTH CENTRAL SOUTH DAKOTA

CITY           SKY/WX    TMP DP  RH WIND       PRES   REMARKS
RAPID CTY ARPT LGT SNOW   9   5  84 N8        30.31R FOG     WCI  -3
PIERRE         CLOUDY     5  -1  76 NE12      30.44R WCI -11
CUSTER         LGT SNOW   7   4  87 NE7       30.08R FOG     WCI  -5
ELLSWORTH AFB  LGT SNOW   8   5  86 NE10      30.31R WCI  -6
PHILIP         LGT SNOW   7   1  78 NE12      30.40R WCI  -9
PINE RIDGE     LGT SNOW  12   7  80 N15       30.24R WCI  -4
SPEARFISH      CLOUDY     5   1  85 MISG      30.28R FOG
WINNER         LGT SNOW   8   3  80 N13       30.37R WCI  -8
$$

SDZ004>011-016>023-039-040-291200-
NORTHEAST SOUTH DAKOTA

CITY           SKY/WX    TMP DP  RH WIND       PRES   REMARKS
ABERDEEN       CLOUDY     0  -7  72 N13       30.53R WCI -18
WATERTOWN      MOCLDY    -2  -8  76 NE13      30.41R WCI -20
SISSETON         N/A     -4  -8  83 N13       30.53R WCI -23
$$

SDZ017-020-022-023-036>040-048>070-291200-
SOUTHEAST SOUTH DAKOTA

CITY           SKY/WX    TMP DP  RH WIND       PRES   REMARKS
SIOUX FALLS    FLURRIES   9   5  84 NE14      30.38R WCI  -7
HURON          CLOUDY     4  -1  80 N13       30.46R WCI -13
CHAMBERLAIN    LGT SNOW   6   2  84 N10       30.41R WCI  -9
MITCHELL       LGT SNOW  10   6  84 N17       30.43R FOG     WCI  -8
YANKTON        CLOUDY    14   9  79 NE15      30.37R WCI  -1
$$

ABBREVIATIONS USED IN REMARKS
   TC - TEMPERATURE IN CELSIUS
  WCI - WIND CHILL INDEX
   HX - HEAT INDEX
  VSB - VISIBILITY




USA.gov is the U.S. government's official web portal to all federal, state and local government web resources and services.